This demonstration page uses our WeatherBlox Daily Observations layout. Learn more.

Left ArrowRight Arrow

Hourly Observations for January 28, 2018

Temp ( °F °C ) Dew Point ( °F °C ) Humidity (%) Winds ( mph kmh ) Pressure ( in mb ) Visibility ( mi km ) Precip ( " mm )
12:53 am 00:53 Clear 44 6.7 40 4.4 85 85 NW 6 9 30.43 1031 10 16 0.00 0.00
1:53 am 01:53 Clear 44 6.7 39 3.9 83 83 NW 6 9 30.42 1030 10 16 0.00 0.00
2:53 am 02:53 Clear 42 5.6 39 3.9 89 89 undefined N/A 30.41 1030 10 16 0.00 0.00
3:53 am 03:53 Clear 40 4.4 37 2.8 89 89 Calm 30.39 1029 10 16 0.00 0.00
4:53 am 04:53 Clear 39 3.9 37 2.8 93 93 Calm 30.39 1029 10 16 0.00 0.00
5:53 am 05:53 Clear 38 3.3 36 2.2 93 93 Calm 30.39 1029 10 16 0.00 0.00
6:53 am 06:53 Clear 37 2.8 34 1.1 89 89 NE 3 6 30.39 1029 10 16 0.00 0.00
7:53 am 07:53 Sunny 37 2.8 35 1.7 93 93 Calm 30.39 1029 10 16 0.00 0.00
8:53 am 08:53 Sunny 45 7.2 40 4.4 83 83 Calm 30.40 1029 10 16 0.00 0.00
9:53 am 09:53 Sunny 57 13.9 44 6.7 62 62 NW 3 6 30.38 1029 10 16 0.00 0.00
10:53 am 10:53 Sunny 62 16.7 44 6.7 52 52 VRB 6 9 30.37 1028 10 16 0.00 0.00
11:53 am 11:53 Sunny 67 19.4 44 6.7 44 44 NNW 6 9 30.33 1027 10 16 0.00 0.00
12:53 pm 12:53 Sunny 70 21.1 45 7.2 41 41 Calm 30.31 1026 10 16 0.00 0.00
1:53 pm 13:53 Sunny 72 22.2 40 4.4 31 31 N 5 7 30.28 1026 10 16 0.00 0.00
2:53 pm 14:53 Sunny 73 22.8 41 5 32 32 N 3 6 30.27 1025 10 16 0.00 0.00
3:53 pm 15:53 Sunny 73 22.8 41 5 32 32 N 5 7 30.27 1025 10 16 0.00 0.00
4:53 pm 16:53 Sunny 67 19.4 43 6.1 42 42 NW 3 6 30.26 1025 10 16 0.00 0.00
5:53 pm 17:53 Clear 64 17.8 42 5.6 45 45 VRB 6 9 30.26 1025 10 16 0.00 0.00
6:53 pm 18:53 Clear 61 16.1 42 5.6 50 50 NW 7 11 30.28 1026 10 16 0.00 0.00
7:53 pm 19:53 Clear 56 13.3 44 6.7 65 65 NNW 5 7 30.29 1026 10 16 0.00 0.00
8:53 pm 20:53 Clear 55 12.8 45 7.2 69 69 NNW 5 7 30.31 1026 10 16 0.00 0.00
9:53 pm 21:53 Clear 50 10 45 7.2 83 83 N 3 6 30.32 1027 10 16 0.00 0.00
10:53 pm 22:53 Clear 49 9.4 44 6.7 83 83 Calm 30.32 1027 10 16 0.00 0.00
11:53 pm 23:53 Clear 48 8.9 44 6.7 86 86 Calm 30.32 1027 10 16 0.00 0.00

Powered by AerisWeather